Location: Highland Meadows Observing Site
(48.4428°N, 114.5461°W)
Time: 06:05:18
(UTC-06:00)

Gurwin Techsat 1B - Visible Passes

Search period start: 27 April 2015 00:00
Search period end: 07 May 2015 00:00
Orbit: 812 x 815 km, 98.5° (Epoch: 26 April)

Date Brightness Start Highest point End Pass type
(mag) Time Alt. Az. Time Alt. Az. Time Alt. Az.
27 Apr 11.0 02:52:00 10° NE 02:54:44 14° E 02:57:42 10° ESE visible
27 Apr 8.6 04:30:12 10° NNE 04:35:34 88° WNW 04:39:19 20° SSW visible
28 Apr 9.0 04:07:31 10° NNE 04:12:48 61° E 04:16:25 20° S visible
29 Apr 9.7 03:44:58 10° NNE 03:49:57 40° E 03:53:29 18° SSE visible
29 Apr 9.5 05:25:07 10° N 05:29:53 34° WNW 05:34:35 10° SW visible
30 Apr 10.3 03:22:37 10° NE 03:27:00 26° E 03:30:34 14° SE visible
30 Apr 9.0 05:02:09 10° N 05:07:17 50° WNW 05:11:47 13° SW visible
01 May 10.8 03:00:35 10° NE 03:03:58 17° E 03:07:32 10° SE visible
01 May 8.6 04:39:18 10° NNE 04:44:38 75° WNW 04:48:52 16° SSW visible
02 May 11.2 02:39:40 10° ENE 02:40:50 11° E 02:42:19 10° E visible
02 May 8.8 04:16:33 10° NNE 04:21:53 73° ESE 04:25:57 18° S visible
03 May 9.4 03:53:57 10° NNE 03:59:05 48° E 04:03:01 17° SSE visible
03 May 9.7 05:34:19 10° N 05:38:53 29° WNW 05:43:21 10° WSW visible
04 May 10.1 03:31:30 10° NNE 03:36:11 31° E 03:40:06 14° SSE visible
04 May 9.2 05:11:18 10° N 05:16:19 42° WNW 05:21:17 10° SW visible
05 May 10.6 03:09:18 10° NE 03:13:11 21° E 03:17:09 10° SE visible
05 May 8.7 04:48:24 10° N 04:53:41 64° WNW 04:58:23 13° SSW visible
06 May 11.0 02:47:41 10° ENE 02:50:04 13° E 02:52:43 10° ESE visible
06 May 8.6 04:25:37 10° NNE 04:30:58 86° E 04:35:27 15° SSW visible
